EAL295 KPDX-KSAN

Flight info

Callsign EAL295
Flight time 2h 3m
Altitude 31000
Route HRMNS6 HYJOE BORDY COLOM PASKE HUULK COMIX2
Aircraft A306/H-SDE3FGHIRWY/LB1

Departure

Time 2026-05-05 04:09
Airport Portland International Airport (KPDX)

Arrival

Time 2026-05-05 06:12
Airport San Diego International Airport (KSAN)
Time Latitude Longitude Altitude Speed Heading
2026-05-05 03:35 45.59154 -122.59719 36 ft 0 kts 87°
2026-05-05 03:55 45.59153 -122.59724 36 ft 2 kts 87°
2026-05-05 03:55 45.59154 -122.59745 36 ft 2 kts 102°
2026-05-05 03:55 45.59159 -122.59766 36 ft 2 kts 114°
2026-05-05 03:55 45.59166 -122.59784 36 ft 2 kts 127°
2026-05-05 03:56 45.59176 -122.59799 36 ft 2 kts 140°
2026-05-05 03:56 45.59188 -122.59811 36 ft 2 kts 153°
2026-05-05 03:56 45.59203 -122.59819 36 ft 2 kts 166°
2026-05-05 03:56 45.59217 -122.59823 36 ft 2 kts 178°
2026-05-05 03:57 45.59232 -122.59821 37 ft 2 kts 191°
2026-05-05 03:57 45.59246 -122.59815 37 ft 2 kts 204°
2026-05-05 03:57 45.59255 -122.59809 37 ft 1 kts 212°
2026-05-05 03:57 45.59256 -122.59808 37 ft 0 kts 212°
2026-05-05 04:01 45.59251 -122.59812 37 ft 2 kts 212°
2026-05-05 04:01 45.59217 -122.59842 36 ft 8 kts 211°
2026-05-05 04:01 45.59156 -122.59911 35 ft 13 kts 232°
2026-05-05 04:02 45.59124 -122.60055 36 ft 16 kts 236°
2026-05-05 04:02 45.59022 -122.60156 36 ft 19 kts 208°
2026-05-05 04:02 45.58911 -122.60219 34 ft 14 kts 166°
2026-05-05 04:02 45.58847 -122.60112 33 ft 14 kts 118°
2026-05-05 04:03 45.58802 -122.59998 32 ft 12 kts 118°
2026-05-05 04:03 45.58761 -122.59886 33 ft 12 kts 118°
2026-05-05 04:03 45.58718 -122.59776 33 ft 13 kts 118°
2026-05-05 04:03 45.58671 -122.59650 33 ft 15 kts 120°
2026-05-05 04:04 45.58616 -122.59521 34 ft 15 kts 118°
2026-05-05 04:04 45.58566 -122.59390 36 ft 15 kts 118°
2026-05-05 04:04 45.58513 -122.59250 36 ft 16 kts 117°
2026-05-05 04:04 45.58454 -122.59103 36 ft 17 kts 119°
2026-05-05 04:05 45.58393 -122.58946 36 ft 18 kts 120°
2026-05-05 04:05 45.58328 -122.58782 35 ft 19 kts 118°
2026-05-05 04:05 45.58259 -122.58603 34 ft 21 kts 118°
2026-05-05 04:05 45.58193 -122.58431 32 ft 11 kts 117°
2026-05-05 04:06 45.58156 -122.58376 32 ft 0 kts 156°
2026-05-05 04:06 45.58155 -122.58376 32 ft 0 kts 156°
2026-05-05 04:06 45.58152 -122.58374 32 ft 1 kts 159°
2026-05-05 04:06 45.58128 -122.58369 32 ft 5 kts 181°
2026-05-05 04:07 45.58083 -122.58395 32 ft 8 kts 218°
2026-05-05 04:07 45.58083 -122.58473 32 ft 0 kts 298°
2026-05-05 04:07 45.58083 -122.58474 32 ft 0 kts 298°
2026-05-05 04:08 45.58117 -122.58560 32 ft 30 kts 299°
2026-05-05 04:08 45.58316 -122.59079 34 ft 86 kts 300°
2026-05-05 04:08 45.58704 -122.60066 32 ft 144 kts 298°
2026-05-05 04:09 45.59264 -122.61517 236 ft 180 kts 298°
2026-05-05 04:09 45.59907 -122.63019 870 ft 181 kts 300°
2026-05-05 04:09 45.60548 -122.64549 1433 ft 184 kts 301°
2026-05-05 04:09 45.61265 -122.66213 1648 ft 207 kts 301°
2026-05-05 04:10 45.62049 -122.68095 1886 ft 232 kts 301°
2026-05-05 04:10 45.62888 -122.70125 2337 ft 249 kts 301°
2026-05-05 04:10 45.63783 -122.72296 3060 ft 255 kts 301°
2026-05-05 04:10 45.64678 -122.74485 3848 ft 259 kts 301°
2026-05-05 04:11 45.65581 -122.76714 4669 ft 261 kts 301°
2026-05-05 04:11 45.66491 -122.78960 5454 ft 265 kts 302°
2026-05-05 04:11 45.67112 -122.81393 6178 ft 273 kts 275°
2026-05-05 04:11 45.66843 -122.84088 6912 ft 281 kts 257°
2026-05-05 04:12 45.66280 -122.86765 7623 ft 286 kts 255°
2026-05-05 04:12 45.65499 -122.89392 8235 ft 295 kts 234°
2026-05-05 04:12 45.63884 -122.91235 8891 ft 301 kts 201°
2026-05-05 04:12 45.61845 -122.91717 9567 ft 301 kts 176°
2026-05-05 04:13 45.59787 -122.91356 10126 ft 306 kts 167°
2026-05-05 04:13 45.57647 -122.90655 10452 ft 322 kts 163°
2026-05-05 04:13 45.55419 -122.89790 10634 ft 341 kts 160°
2026-05-05 04:13 45.53208 -122.88449 10783 ft 359 kts 150°
2026-05-05 04:14 45.50953 -122.86637 10951 ft 379 kts 147°
2026-05-05 04:14 45.48664 -122.84659 11219 ft 395 kts 146°
2026-05-05 04:14 45.46293 -122.82593 11783 ft 403 kts 146°
2026-05-05 04:14 45.43891 -122.80518 12500 ft 406 kts 146°
2026-05-05 04:15 45.41473 -122.78446 13222 ft 408 kts 146°
2026-05-05 04:15 45.39041 -122.76366 13854 ft 412 kts 146°
2026-05-05 04:15 45.36589 -122.74274 14416 ft 417 kts 146°
2026-05-05 04:15 45.34068 -122.72121 15024 ft 421 kts 146°
2026-05-05 04:16 45.31564 -122.69985 15707 ft 422 kts 146°
2026-05-05 04:16 45.29081 -122.67869 16269 ft 427 kts 146°
2026-05-05 04:16 45.26473 -122.65647 16796 ft 432 kts 146°
2026-05-05 04:16 45.23900 -122.63460 17300 ft 437 kts 146°
2026-05-05 04:17 45.21299 -122.61251 17858 ft 441 kts 146°
2026-05-05 04:17 45.18644 -122.59000 18417 ft 444 kts 146°
2026-05-05 04:17 45.15994 -122.56760 18947 ft 448 kts 146°
2026-05-05 04:17 45.13333 -122.54510 19471 ft 451 kts 146°
2026-05-05 04:18 45.10634 -122.52232 19999 ft 454 kts 146°
2026-05-05 04:18 45.07904 -122.49925 20512 ft 457 kts 146°
2026-05-05 04:18 45.05197 -122.47638 21027 ft 459 kts 145°
2026-05-05 04:18 45.02456 -122.45327 21508 ft 462 kts 145°
2026-05-05 04:19 44.99678 -122.42989 21982 ft 466 kts 145°
2026-05-05 04:19 44.96870 -122.40628 22443 ft 469 kts 145°
2026-05-05 04:19 44.93994 -122.38506 22866 ft 475 kts 153°
2026-05-05 04:19 44.90892 -122.36879 23289 ft 482 kts 158°
2026-05-05 04:20 44.87635 -122.35461 23715 ft 486 kts 159°
2026-05-05 04:20 44.84420 -122.34085 24127 ft 490 kts 160°
2026-05-05 04:20 44.81174 -122.32630 24574 ft 492 kts 159°
2026-05-05 04:20 44.77898 -122.31110 25049 ft 494 kts 158°
2026-05-05 04:21 44.74656 -122.29588 25522 ft 496 kts 158°
2026-05-05 04:21 44.71361 -122.28046 25943 ft 499 kts 158°
2026-05-05 04:21 44.68088 -122.26521 26314 ft 503 kts 158°
2026-05-05 04:21 44.64730 -122.24966 26726 ft 505 kts 158°
2026-05-05 04:22 44.61405 -122.23427 27119 ft 508 kts 158°
2026-05-05 04:22 44.58062 -122.21882 27540 ft 510 kts 158°
2026-05-05 04:22 44.54711 -122.20341 28078 ft 508 kts 158°
2026-05-05 04:22 44.51322 -122.18780 28557 ft 508 kts 158°
2026-05-05 04:23 44.47980 -122.17240 29027 ft 507 kts 158°
2026-05-05 04:23 44.44629 -122.15700 29474 ft 506 kts 157°
2026-05-05 04:23 44.41312 -122.14175 29900 ft 506 kts 157°
2026-05-05 04:23 44.37981 -122.12646 30366 ft 505 kts 157°
2026-05-05 04:24 44.34664 -122.11124 30850 ft 503 kts 157°
2026-05-05 04:24 44.31353 -122.09605 31077 ft 501 kts 156°
2026-05-05 04:25 44.21415 -122.05055 31089 ft 496 kts 156°
2026-05-05 04:25 44.14745 -122.02016 31105 ft 497 kts 156°
2026-05-05 04:26 44.08250 -121.99070 31139 ft 481 kts 156°
2026-05-05 04:26 44.01848 -121.96161 31130 ft 487 kts 156°
2026-05-05 04:27 43.95365 -121.93221 31133 ft 494 kts 156°
2026-05-05 04:27 43.88793 -121.90259 31130 ft 495 kts 156°
2026-05-05 04:28 43.82131 -121.87682 31131 ft 501 kts 162°
2026-05-05 04:28 43.75277 -121.85825 31089 ft 502 kts 163°
2026-05-05 04:29 43.68458 -121.83891 31043 ft 499 kts 162°
2026-05-05 04:29 43.61682 -121.81906 31034 ft 499 kts 163°
2026-05-05 04:30 43.54866 -121.79939 31040 ft 499 kts 163°
2026-05-05 04:30 43.48078 -121.77987 31033 ft 499 kts 162°
2026-05-05 04:31 43.41265 -121.76022 31035 ft 498 kts 163°
2026-05-05 04:31 43.34463 -121.74075 31031 ft 500 kts 163°
2026-05-05 04:32 43.27662 -121.72131 31039 ft 498 kts 163°
2026-05-05 04:32 43.20861 -121.70189 31033 ft 499 kts 162°
2026-05-05 04:33 43.14070 -121.68256 31029 ft 498 kts 162°
2026-05-05 04:33 43.07309 -121.66333 31033 ft 497 kts 162°
2026-05-05 04:34 43.00488 -121.64393 31036 ft 498 kts 162°
2026-05-05 04:34 42.93731 -121.62486 31031 ft 497 kts 162°
2026-05-05 04:35 42.86941 -121.60571 31014 ft 496 kts 162°
2026-05-05 04:35 42.80155 -121.58656 31014 ft 497 kts 162°
2026-05-05 04:36 42.73390 -121.56753 31004 ft 496 kts 162°
2026-05-05 04:36 42.66617 -121.54858 31011 ft 496 kts 162°
2026-05-05 04:37 42.59860 -121.52968 31005 ft 497 kts 162°
2026-05-05 04:37 42.53130 -121.51088 30999 ft 495 kts 162°
2026-05-05 04:38 42.46346 -121.49197 31000 ft 495 kts 162°
2026-05-05 04:38 42.39599 -121.47324 30991 ft 496 kts 162°
2026-05-05 04:39 42.32840 -121.45451 30984 ft 494 kts 162°
2026-05-05 04:39 42.26094 -121.43582 30981 ft 494 kts 162°
2026-05-05 04:40 42.19331 -121.41711 30978 ft 495 kts 162°
2026-05-05 04:40 42.12592 -121.39854 30979 ft 495 kts 162°
2026-05-05 04:41 42.05845 -121.38005 30976 ft 494 kts 162°
2026-05-05 04:41 41.99067 -121.36143 30978 ft 494 kts 162°
2026-05-05 04:42 41.92321 -121.34296 30989 ft 495 kts 163°
2026-05-05 04:42 41.85593 -121.32455 30978 ft 493 kts 163°
2026-05-05 04:43 41.78828 -121.30615 30970 ft 495 kts 163°
2026-05-05 04:43 41.72097 -121.28789 30970 ft 495 kts 163°
2026-05-05 04:44 41.65357 -121.26955 30971 ft 493 kts 162°
2026-05-05 04:44 41.58649 -121.25139 30975 ft 494 kts 162°
2026-05-05 04:45 41.51850 -121.23302 30981 ft 494 kts 162°
2026-05-05 04:45 41.45139 -121.21491 30979 ft 492 kts 162°
2026-05-05 04:46 41.38444 -121.19689 30979 ft 493 kts 162°
2026-05-05 04:46 41.31697 -121.17883 30982 ft 492 kts 162°
2026-05-05 04:47 41.24998 -121.16081 30980 ft 493 kts 162°
2026-05-05 04:47 41.18294 -121.14288 30973 ft 494 kts 162°
2026-05-05 04:48 41.11528 -121.12492 30972 ft 491 kts 162°
2026-05-05 04:48 41.04830 -121.10702 30969 ft 490 kts 162°
2026-05-05 04:49 40.98099 -121.09139 30973 ft 496 kts 168°
2026-05-05 04:49 40.91188 -121.08472 30982 ft 498 kts 171°
2026-05-05 04:50 40.84285 -121.07825 30956 ft 496 kts 169°
2026-05-05 04:50 40.77416 -121.07071 30951 ft 494 kts 169°
2026-05-05 04:51 40.70548 -121.06324 30954 ft 494 kts 169°
2026-05-05 04:51 40.63689 -121.05598 30949 ft 496 kts 169°
2026-05-05 04:52 40.56835 -121.04874 30957 ft 493 kts 169°
2026-05-05 04:52 40.49985 -121.04157 30952 ft 492 kts 169°
2026-05-05 04:53 40.43114 -121.03425 30966 ft 492 kts 169°
2026-05-05 04:53 40.36302 -121.02698 30964 ft 493 kts 169°
2026-05-05 04:54 40.29459 -121.01981 30973 ft 492 kts 169°
2026-05-05 04:54 40.22624 -121.01262 30976 ft 491 kts 169°
2026-05-05 04:55 40.15848 -121.00561 30984 ft 488 kts 169°
2026-05-05 04:55 40.09078 -120.99844 30977 ft 487 kts 169°
2026-05-05 04:56 40.02282 -120.99129 30986 ft 489 kts 169°
2026-05-05 04:56 39.95480 -120.98427 30994 ft 489 kts 169°
2026-05-05 04:57 39.88673 -120.97720 30990 ft 489 kts 169°
2026-05-05 04:57 39.81910 -120.97016 30977 ft 486 kts 169°
2026-05-05 04:58 39.75154 -120.96311 30981 ft 486 kts 169°
2026-05-05 04:58 39.68407 -120.95614 30974 ft 486 kts 169°
2026-05-05 04:59 39.61648 -120.94918 30983 ft 484 kts 169°
2026-05-05 04:59 39.54918 -120.94228 30986 ft 485 kts 169°
2026-05-05 05:00 39.48163 -120.93528 30988 ft 484 kts 169°
2026-05-05 05:00 39.41467 -120.92845 30997 ft 486 kts 170°
2026-05-05 05:01 39.34714 -120.92151 30993 ft 486 kts 169°
2026-05-05 05:01 39.27978 -120.91460 30995 ft 484 kts 170°
2026-05-05 05:02 39.21234 -120.90775 31005 ft 483 kts 170°
2026-05-05 05:02 39.14547 -120.90094 31004 ft 484 kts 170°
2026-05-05 05:03 39.07830 -120.89407 31010 ft 485 kts 170°
2026-05-05 05:03 39.01083 -120.88730 31010 ft 485 kts 170°
2026-05-05 05:04 38.94373 -120.88048 31006 ft 484 kts 170°
2026-05-05 05:04 38.87629 -120.87369 31009 ft 485 kts 170°
2026-05-05 05:05 38.81181 -120.85646 31035 ft 465 kts 147°
2026-05-05 05:05 38.75730 -120.81346 31015 ft 462 kts 141°
2026-05-05 05:06 38.70177 -120.77117 31044 ft 466 kts 144°
2026-05-05 05:06 38.64509 -120.73114 31019 ft 469 kts 144°
2026-05-05 05:07 38.58786 -120.69044 31016 ft 469 kts 144°
2026-05-05 05:07 38.53103 -120.65002 31010 ft 471 kts 144°
2026-05-05 05:08 38.47373 -120.60934 31005 ft 470 kts 144°
2026-05-05 05:08 38.41651 -120.56866 31006 ft 471 kts 144°
2026-05-05 05:09 38.35867 -120.52769 31014 ft 473 kts 144°
2026-05-05 05:09 38.30108 -120.48702 31012 ft 473 kts 144°
2026-05-05 05:10 38.24369 -120.44653 31018 ft 475 kts 144°
2026-05-05 05:10 38.18560 -120.40568 31024 ft 478 kts 144°
2026-05-05 05:11 38.12786 -120.36507 31016 ft 477 kts 144°
2026-05-05 05:11 38.06942 -120.32399 31029 ft 479 kts 145°
2026-05-05 05:12 38.01128 -120.28333 31037 ft 481 kts 145°
2026-05-05 05:12 37.95264 -120.24236 31025 ft 479 kts 145°
2026-05-05 05:13 37.89419 -120.20155 31014 ft 479 kts 145°
2026-05-05 05:13 37.83575 -120.16080 30993 ft 480 kts 144°
2026-05-05 05:14 37.77731 -120.12022 30996 ft 479 kts 145°
2026-05-05 05:14 37.71892 -120.07968 30998 ft 481 kts 145°
2026-05-05 05:15 37.66072 -120.03942 31000 ft 481 kts 144°
2026-05-05 05:15 37.60209 -119.99880 30991 ft 478 kts 145°
2026-05-05 05:16 37.54387 -119.95864 30988 ft 477 kts 145°
2026-05-05 05:16 37.48591 -119.91875 30988 ft 478 kts 145°
2026-05-05 05:17 37.42736 -119.87838 30988 ft 478 kts 145°
2026-05-05 05:17 37.36906 -119.83837 30998 ft 478 kts 145°
2026-05-05 05:18 37.31115 -119.79880 30997 ft 475 kts 145°
2026-05-05 05:18 37.25332 -119.75912 30990 ft 474 kts 145°
2026-05-05 05:19 37.19522 -119.71949 30989 ft 473 kts 146°
2026-05-05 05:19 37.13762 -119.68023 30992 ft 473 kts 146°
2026-05-05 05:20 37.07966 -119.64080 30994 ft 472 kts 146°
2026-05-05 05:20 37.02214 -119.60165 30984 ft 472 kts 146°
2026-05-05 05:21 36.96469 -119.56268 30991 ft 471 kts 146°
2026-05-05 05:21 36.90692 -119.52351 30992 ft 470 kts 147°
2026-05-05 05:22 36.84925 -119.48464 30976 ft 470 kts 147°
2026-05-05 05:22 36.79167 -119.44577 30977 ft 470 kts 147°
2026-05-05 05:23 36.73435 -119.40720 30961 ft 469 kts 147°
2026-05-05 05:23 36.67662 -119.36826 30947 ft 470 kts 148°
2026-05-05 05:24 36.61869 -119.32945 30946 ft 471 kts 149°
2026-05-05 05:24 36.56115 -119.29086 30976 ft 471 kts 149°
2026-05-05 05:25 36.50343 -119.25237 30980 ft 471 kts 149°
2026-05-05 05:25 36.44557 -119.21373 30969 ft 474 kts 150°
2026-05-05 05:26 36.38748 -119.17464 30961 ft 482 kts 152°
2026-05-05 05:26 36.32914 -119.13517 30973 ft 470 kts 154°
2026-05-05 05:27 36.27150 -119.09788 30971 ft 465 kts 154°
2026-05-05 05:27 36.18589 -119.04131 30979 ft 465 kts 154°
2026-05-05 05:28 36.12817 -119.00541 30959 ft 462 kts 162°
2026-05-05 05:28 36.06548 -118.98801 30973 ft 461 kts 172°
2026-05-05 05:29 36.00252 -118.97321 30983 ft 462 kts 169°
2026-05-05 05:29 35.93943 -118.95624 30961 ft 461 kts 169°
2026-05-05 05:30 35.87683 -118.93935 30971 ft 459 kts 169°
2026-05-05 05:30 35.81405 -118.92266 30973 ft 457 kts 170°
2026-05-05 05:31 35.75229 -118.90635 30969 ft 456 kts 170°
2026-05-05 05:31 35.68997 -118.88974 30980 ft 456 kts 171°
2026-05-05 05:32 35.62800 -118.87340 30981 ft 456 kts 171°
2026-05-05 05:32 35.56598 -118.85701 30985 ft 455 kts 171°
2026-05-05 05:33 35.50417 -118.84080 30993 ft 454 kts 171°
2026-05-05 05:33 35.44242 -118.82446 30989 ft 452 kts 171°
2026-05-05 05:34 35.38088 -118.80830 30988 ft 450 kts 172°
2026-05-05 05:34 35.31968 -118.79230 30988 ft 450 kts 172°
2026-05-05 05:35 35.25862 -118.77634 30981 ft 449 kts 172°
2026-05-05 05:35 35.19768 -118.76036 30990 ft 447 kts 172°
2026-05-05 05:36 35.13705 -118.74444 30995 ft 445 kts 173°
2026-05-05 05:36 35.07651 -118.72868 30982 ft 444 kts 173°
2026-05-05 05:37 35.01632 -118.71298 30984 ft 442 kts 173°
2026-05-05 05:37 34.95602 -118.69743 30972 ft 443 kts 173°
2026-05-05 05:38 34.89585 -118.68179 30967 ft 441 kts 173°
2026-05-05 05:38 34.83579 -118.66620 30962 ft 437 kts 174°
2026-05-05 05:39 34.77619 -118.65071 30975 ft 437 kts 174°
2026-05-05 05:39 34.71642 -118.63536 30974 ft 437 kts 174°
2026-05-05 05:40 34.65743 -118.62012 30989 ft 436 kts 174°
2026-05-05 05:40 34.59793 -118.60427 30972 ft 436 kts 171°
2026-05-05 05:41 34.56945 -118.59016 30989 ft 449 kts 160°
2026-05-05 05:41 34.54254 -118.57128 31001 ft 454 kts 155°
2026-05-05 05:41 34.48887 -118.53040 30997 ft 453 kts 156°
2026-05-05 05:42 34.43477 -118.49154 31003 ft 451 kts 157°
2026-05-05 05:42 34.38090 -118.45335 31020 ft 449 kts 158°
2026-05-05 05:43 34.32721 -118.41524 31021 ft 450 kts 158°
2026-05-05 05:43 34.27337 -118.37700 31026 ft 446 kts 158°
2026-05-05 05:44 34.21970 -118.33905 31011 ft 447 kts 159°
2026-05-05 05:44 34.16645 -118.30128 30998 ft 444 kts 159°
2026-05-05 05:45 34.11290 -118.26350 30993 ft 447 kts 159°
2026-05-05 05:45 34.05926 -118.22559 30977 ft 447 kts 160°
2026-05-05 05:46 34.00577 -118.18800 30980 ft 444 kts 160°
2026-05-05 05:46 33.95347 -118.15107 30419 ft 430 kts 160°
2026-05-05 05:47 33.92769 -118.13305 29826 ft 428 kts 160°
2026-05-05 05:47 33.90209 -118.11523 29246 ft 425 kts 160°
2026-05-05 05:47 33.87631 -118.09722 28677 ft 420 kts 159°
2026-05-05 05:47 33.85120 -118.07975 28166 ft 415 kts 159°
2026-05-05 05:48 33.82637 -118.06311 27645 ft 411 kts 160°
2026-05-05 05:48 33.80076 -118.04633 27148 ft 424 kts 160°
2026-05-05 05:48 33.77462 -118.02923 26614 ft 434 kts 159°
2026-05-05 05:48 33.74834 -118.01189 26075 ft 434 kts 158°
2026-05-05 05:49 33.72205 -117.99443 25532 ft 429 kts 158°
2026-05-05 05:49 33.69621 -117.97726 25004 ft 423 kts 157°
2026-05-05 05:49 33.67039 -117.96017 24492 ft 417 kts 156°
2026-05-05 05:49 33.64508 -117.94350 23969 ft 412 kts 156°
2026-05-05 05:50 33.62026 -117.92712 23427 ft 408 kts 155°
2026-05-05 05:50 33.59568 -117.91087 22927 ft 401 kts 155°
2026-05-05 05:50 33.57156 -117.89487 22438 ft 395 kts 155°
2026-05-05 05:50 33.54746 -117.87883 21941 ft 389 kts 155°
2026-05-05 05:51 33.52401 -117.86297 21448 ft 384 kts 154°
2026-05-05 05:51 33.50076 -117.84713 20972 ft 387 kts 154°
2026-05-05 05:51 33.47702 -117.83100 20483 ft 399 kts 154°
2026-05-05 05:51 33.45302 -117.81460 19961 ft 402 kts 153°
2026-05-05 05:52 33.43016 -117.79534 19435 ft 400 kts 145°
2026-05-05 05:52 33.40924 -117.77382 18916 ft 396 kts 141°
2026-05-05 05:52 33.38884 -117.75144 18408 ft 390 kts 141°
2026-05-05 05:52 33.36902 -117.72971 17911 ft 385 kts 141°
2026-05-05 05:53 33.34939 -117.70849 17379 ft 381 kts 141°
2026-05-05 05:53 33.32984 -117.68758 16862 ft 376 kts 141°
2026-05-05 05:53 33.31049 -117.66689 16355 ft 372 kts 141°
2026-05-05 05:53 33.29123 -117.64632 15870 ft 367 kts 141°
2026-05-05 05:54 33.27238 -117.62618 15391 ft 362 kts 141°
2026-05-05 05:54 33.25364 -117.60629 14926 ft 361 kts 141°
2026-05-05 05:54 33.23456 -117.58621 14460 ft 373 kts 141°
2026-05-05 05:54 33.21495 -117.56549 13964 ft 378 kts 141°
2026-05-05 05:55 33.19537 -117.54492 13466 ft 374 kts 141°
2026-05-05 05:55 33.17604 -117.52455 12973 ft 369 kts 141°
2026-05-05 05:55 33.15672 -117.50418 12486 ft 364 kts 141°
2026-05-05 05:55 33.13759 -117.48486 12012 ft 355 kts 144°
2026-05-05 05:56 33.11834 -117.46779 11729 ft 337 kts 147°
2026-05-05 05:56 33.09967 -117.45213 11474 ft 320 kts 148°
2026-05-05 05:56 33.08185 -117.43735 11250 ft 307 kts 148°
2026-05-05 05:56 33.06458 -117.42310 11072 ft 296 kts 148°
2026-05-05 05:57 33.04814 -117.40942 10905 ft 285 kts 148°
2026-05-05 05:57 33.03202 -117.39593 10734 ft 275 kts 148°
2026-05-05 05:57 33.01667 -117.38303 10475 ft 269 kts 148°
2026-05-05 05:57 33.00145 -117.37028 10221 ft 265 kts 147°
2026-05-05 05:58 32.98622 -117.35751 9974 ft 267 kts 148°
2026-05-05 05:58 32.97089 -117.34468 9724 ft 269 kts 148°
2026-05-05 05:58 32.95577 -117.33199 9473 ft 268 kts 148°
2026-05-05 05:58 32.94041 -117.31913 9218 ft 268 kts 148°
2026-05-05 05:59 32.92538 -117.30656 9069 ft 266 kts 148°
2026-05-05 05:59 32.90989 -117.29363 8805 ft 268 kts 149°
2026-05-05 05:59 32.89465 -117.28095 8551 ft 267 kts 148°
2026-05-05 05:59 32.87942 -117.26830 8300 ft 265 kts 148°
2026-05-05 06:00 32.86434 -117.25581 8053 ft 263 kts 148°
2026-05-05 06:00 32.84949 -117.24349 7805 ft 262 kts 148°
2026-05-05 06:00 32.83456 -117.23110 7564 ft 261 kts 148°
2026-05-05 06:00 32.81985 -117.21841 7309 ft 262 kts 139°
2026-05-05 06:01 32.81006 -117.19999 7117 ft 269 kts 112°
2026-05-05 06:01 32.80457 -117.17860 6862 ft 270 kts 107°
2026-05-05 06:01 32.79979 -117.15729 6612 ft 269 kts 107°
2026-05-05 06:01 32.79496 -117.13582 6418 ft 262 kts 107°
2026-05-05 06:02 32.79034 -117.11548 6282 ft 251 kts 107°
2026-05-05 06:02 32.78588 -117.09562 6104 ft 242 kts 107°
2026-05-05 06:02 32.78171 -117.07734 6030 ft 223 kts 110°
2026-05-05 06:02 32.77624 -117.06085 5892 ft 207 kts 116°
2026-05-05 06:03 32.77074 -117.04566 5722 ft 194 kts 116°
2026-05-05 06:03 32.76534 -117.03127 5389 ft 189 kts 117°
2026-05-05 06:03 32.75992 -117.01705 5023 ft 187 kts 117°
2026-05-05 06:03 32.75451 -117.00298 4654 ft 185 kts 116°
2026-05-05 06:04 32.74920 -116.98930 4276 ft 185 kts 117°
2026-05-05 06:04 32.74241 -116.97649 3908 ft 181 kts 127°
2026-05-05 06:04 32.73531 -116.96403 3528 ft 181 kts 126°
2026-05-05 06:04 32.72832 -116.95167 3181 ft 179 kts 126°
2026-05-05 06:05 32.72138 -116.93941 2826 ft 178 kts 125°
2026-05-05 06:05 32.71452 -116.92719 2477 ft 176 kts 125°
2026-05-05 06:05 32.70777 -116.91515 2096 ft 176 kts 124°
2026-05-05 06:05 32.70121 -116.90344 1943 ft 162 kts 126°
2026-05-05 06:06 32.69279 -116.89500 1922 ft 161 kts 161°
2026-05-05 06:06 32.68181 -116.89457 2078 ft 153 kts 207°
2026-05-05 06:06 32.67420 -116.90314 2219 ft 160 kts 246°
2026-05-05 06:06 32.67171 -116.91611 2228 ft 164 kts 260°
2026-05-05 06:07 32.67142 -116.92989 2524 ft 170 kts 283°
2026-05-05 06:07 32.67448 -116.94301 3060 ft 166 kts 284°
2026-05-05 06:07 32.67753 -116.95612 3462 ft 167 kts 284°
2026-05-05 06:07 32.68044 -116.96993 3535 ft 171 kts 281°
2026-05-05 06:08 32.68338 -116.98342 3535 ft 169 kts 284°
2026-05-05 06:08 32.68652 -116.99696 3535 ft 169 kts 284°
2026-05-05 06:08 32.68967 -117.01014 3542 ft 163 kts 284°
2026-05-05 06:08 32.69284 -117.02320 3554 ft 165 kts 284°
2026-05-05 06:09 32.69595 -117.03597 3514 ft 158 kts 285°
2026-05-05 06:09 32.69895 -117.04847 3158 ft 156 kts 284°
2026-05-05 06:09 32.70195 -117.06075 2661 ft 155 kts 285°
2026-05-05 06:09 32.70491 -117.07255 2308 ft 146 kts 285°
2026-05-05 06:10 32.70773 -117.08378 1982 ft 140 kts 285°
2026-05-05 06:10 32.71038 -117.09501 1636 ft 140 kts 285°
2026-05-05 06:10 32.71307 -117.10594 1347 ft 139 kts 285°
2026-05-05 06:10 32.71584 -117.11697 1159 ft 141 kts 286°
2026-05-05 06:11 32.71855 -117.12830 1034 ft 143 kts 284°
2026-05-05 06:11 32.72129 -117.13962 886 ft 144 kts 285°
2026-05-05 06:11 32.72406 -117.15108 689 ft 144 kts 285°
2026-05-05 06:11 32.72692 -117.16247 459 ft 144 kts 285°
2026-05-05 06:12 32.72975 -117.17390 189 ft 143 kts 285°
2026-05-05 06:12 32.73246 -117.18501 27 ft 134 kts 284°
2026-05-05 06:12 32.73444 -117.19332 27 ft 73 kts 287°
2026-05-05 06:12 32.73531 -117.19694 24 ft 31 kts 280°
2026-05-05 06:13 32.73512 -117.19833 24 ft 12 kts 251°
2026-05-05 06:13 32.73479 -117.19924 24 ft 11 kts 231°
2026-05-05 06:13 32.73453 -117.19948 24 ft 0 kts 208°
2026-05-05 06:13 32.73451 -117.19949 24 ft 1 kts 208°
2026-05-05 06:14 32.73432 -117.19960 24 ft 4 kts 210°
2026-05-05 06:14 32.73407 -117.20003 24 ft 8 kts 252°
2026-05-05 06:14 32.73402 -117.20023 24 ft 0 kts 253°
2026-05-05 06:15 32.73402 -117.20026 24 ft 1 kts 253°
2026-05-05 06:15 32.73396 -117.20051 24 ft 2 kts 255°
2026-05-05 06:15 32.73395 -117.20052 24 ft 0 kts 255°